Weather in Bolkhovskoye

Russia / Lipetsk Oblast     52°24′55″N   38°51′40″E
temp.,
°C
wind,
m/s
gust,
m/s
humid.,
%
clouds,
%
prec.,
mm/h
press.,
hPa
HPBL,
m
19 april, mon
mon1900:00+6e227656 0.0 101820
03:00+6ese228399 0.0 101815
06:00+5e228693 0.0 101821
09:00+9sse227116 0.0 1017490
12:00+12sse126084 0.8 10161109
15:00+13ene335538 2.2 10151301
18:00+11ene4570100 1.8 1016669
21:00+9se3788100 3.9 1016477
20 april, tue
tue2000:00+8e5108892 2.9 1017614
03:00+7e5118990 2.9 1016518
06:00+7e5109099 0.0 1016483
09:00+7ene6990100 0.0 1015621
12:00+6ene61092100 0.1 1014555
15:00+7ene71089100 0.1 1011672
18:00+6ene71291100 0.0 1009691
21:00+4ne71297100 7.8 1004723
21 april, wed
wed2100:00+2nw91499100 18.3 998543
03:00+1sw610100100 21.9 1002355
06:00+2wsw51299100 0.6 1004592
09:00+4sw51099100 0.6 1008671
12:00+6sw5991100 0.1 1010761
15:00+9sw587363 0.1 10111145
18:00+8sw478693 0.1 1013351
21:00+5ssw359248 0.2 101574
22 april, thu
thu2200:00+5s359154 0.0 101586
03:00+5ssw389496 0.1 1016205
06:00+4sw359323 0.1 1017114
09:00+8sw367995 0.1 1018380
12:00+13sw575844 0.1 10191637
15:00+14sw675357 0.6 10181889
18:00+13ssw596656 0.2 1019554
21:00+10s498110 0.2 1020156
23 april, fri
fri2300:00+8s398528 0.0 1020153
03:00+7ssw358843 0.4 102185
06:00+7s378936 0.2 1021128
09:00+12ssw57705 0.3 1021424
12:00+16ssw57525 0.1 10201642
15:00+15s5859100 0.4 1019542
18:00+15s595949 0.1 1019379
21:00+10s4117411 0.1 1018212